[[{"header":{"parameterUnit":"m.s-1","parameterCategory":1,"la1":30.2991,"la2":30.254,"lo1":-89.0895,"lo2":-89.0444,"dy":0.0017,"dx":0.0017,"nx":28,"ny":28,"refTime":"2025-07-17T21:00:00:Z","depth":0,"parameterNumber":2,"parameterNumberName":"U-component_of_WINDS"},"data":[0,0,0,0,0,0,0,0,0,0,0,0,0,0,0,0,0,0,0,0,0,0,0,0,0,0,0,0,0,0,0,0,0,0,0,0,0,0,0,0,0,0,0,0,0,0,0,0,0,0,0,0,0,0,0,0,0,0,1.9274,1.9275,0,1.9346,1.9347,1.9348,1.9359,1.9358,1.9358,1.9357,1.943,1.9432,1.9435,0,0,0,0,0,0,0,0,0,0,0,0,0,1.9142,1.9144,1.9274,1.9275,1.9276,1.9346,1.9347,1.9348,1.9359,1.9358,1.9358,1.9357,1.9429,1.9432,1.9435,0,0,0,0,0,0,0,0,0,0,0,0,0,1.9205,1.9145,1.9274,1.929,1.9292,1.9346,1.9347,1.9349,1.9359,1.9358,1.9357,1.9357,1.9428,1.9432,1.9435,1.9478,0,0,1.9447,1.9449,0,0,0,0,0,0,0,0,1.9202,1.921,1.9287,1.9289,1.9292,1.9343,1.9327,1.9392,1.936,1.9334,1.9357,1.9356,1.9401,1.9407,1.9423,1.9481,1.9484,1.9447,1.9449,1.9451,1.9452,0,0,0,0,0,0,0,1.9197,1.9207,1.9303,1.9288,1.9291,1.9292,1.93,1.934,1.9372,1.9336,1.9337,1.9345,1.9403,1.9419,1.9425,1.9486,1.9447,1.945,1.9453,1.9454,1.9579,1.958,0,0,0,0,0,0,1.919,1.9203,1.9301,1.9305,1.9243,1.9295,1.9304,1.9327,1.9372,1.9378,1.9346,1.9346,1.9413,1.942,1.9427,1.9478,1.9451,1.9455,1.9457,1.9578,1.9579,1.958,0,0,0,0,0,0,1.9187,1.9199,1.9298,1.9254,1.9267,1.9299,1.9324,1.9329,1.9346,1.9379,1.9385,1.9358,1.9413,1.9422,1.9465,1.9481,1.9456,1.946,1.9576,1.9578,1.9579,1.9581,0,0,0,0,0,0,1.9184,1.9198,1.9216,1.9255,1.9269,1.9335,1.9326,1.9331,1.9353,1.9353,1.9392,1.9397,1.9413,1.9459,1.9468,1.9485,1.9463,1.9575,1.9577,1.9579,1.9579,1.9582,1.9584,0,0,0,0,0,1.9179,1.9214,1.9217,1.9228,1.9292,1.9336,1.9344,1.9362,1.9354,1.9371,1.9392,1.9396,1.9477,1.9463,1.9474,1.9492,1.9574,1.9577,1.9579,1.9578,1.9582,1.9584,0,0,0,0,0,0,1.9176,1.9219,1.9223,1.9272,1.93,1.9338,1.936,1.9365,1.9396,1.9395,1.9415,1.9424,1.9464,1.9483,1.9466,1.9534,1.9525,1.9529,1.9521,1.9524,1.9527,1.9521,1.9466,0,0,0,0,0,1.9181,1.9213,1.9249,1.9288,1.9302,1.9329,1.9348,1.9359,1.9389,1.9401,1.9425,1.9454,1.9485,1.9506,1.9537,1.9582,1.9589,1.96,1.9602,1.9604,1.9608,1.963,1.9634,1.9588,1.9588,1.9588,0,0,1.9192,1.9219,1.9239,1.9288,1.9312,1.9343,1.9339,1.9373,1.9396,1.9406,1.9448,1.9466,1.9499,1.9542,1.9562,1.9558,1.9622,1.9607,1.9608,1.9611,1.9632,1.9637,1.9641,1.9589,1.9589,1.9589,0,0,1.9227,1.9252,1.9286,1.9309,1.9344,1.9361,1.9368,1.9405,1.9417,1.9459,1.9466,1.9493,1.9548,1.957,1.9589,1.9628,1.9632,1.9638,1.9651,1.9672,1.9676,1.9679,1.9691,1.9696,1.9641,1.9641,1.9641,0,1.9236,1.9285,1.9303,1.9336,1.9357,1.9366,1.94,1.9421,1.9464,1.9477,1.9472,1.9539,1.9562,1.9609,1.9618,1.9634,1.9642,1.9634,1.9674,1.9678,1.9681,1.9693,1.9697,1.9642,1.9642,1.9642,1.9642,0,1.9292,1.9326,1.9349,1.939,1.9413,1.9446,1.9467,1.9488,1.9496,1.9513,1.9553,1.9581,1.9616,1.9628,1.9637,1.9675,1.9671,1.967,1.9661,1.9685,1.9697,1.9701,1.9642,1.9642,1.9642,1.9642,0,0,1.9329,1.9378,1.9386,1.9403,1.9441,1.9466,1.9498,1.9533,1.9549,1.9578,1.9604,1.9649,1.9647,1.9668,1.9679,1.9697,1.9724,1.9693,1.9694,1.9697,1.9765,1.9765,1.977,1.9727,1.9728,1.9728,1.9762,0,1.9368,1.9427,1.9442,1.9491,1.9521,1.9529,1.9557,1.9582,1.9597,1.9623,1.964,1.9671,1.9667,1.9679,1.9698,1.9717,1.9738,1.9715,1.9749,1.9751,1.974,1.9776,1.9777,1.9807,1.9766,1.9767,1.9768,0,1.9421,1.945,1.9501,1.9532,1.9545,1.957,1.9601,1.9627,1.9654,1.9664,1.9686,1.9694,1.9726,1.9715,1.9758,1.9742,1.9757,1.9768,1.9769,1.9773,1.976,1.9779,1.9818,1.9822,1.9775,1.9775,1.9774,0,1.944,1.9492,1.9529,1.9543,1.9581,1.9598,1.9614,1.9641,1.9659,1.9686,1.9698,1.9728,1.9745,1.9767,1.9782,1.9774,1.9823,1.9814,1.983,1.983,1.984,1.9839,1.988,1.9852,1.9852,1.9852,1.9852,0,1.9481,1.9511,1.9537,1.956,1.9594,1.961,1.9643,1.9659,1.9682,1.9707,1.9716,1.9739,1.9758,1.9783,1.9795,1.9827,1.9835,1.9842,1.9845,1.9841,1.984,1.9851,1.9849,1.9853,1.9853,1.9852,1.9852,0,1.9508,1.9527,1.9567,1.9599,1.9607,1.963,1.9657,1.9678,1.9693,1.9723,1.9731,1.9755,1.9784,1.9801,1.9839,1.9847,1.9882,1.9884,1.9872,1.9873,1.9888,1.9886,1.9937,1.9943,1.9911,1.9912,1.9912,0,1.9532,1.9556,1.9589,1.9606,1.9622,1.965,1.9669,1.9685,1.9704,1.9735,1.9752,1.9782,1.9806,1.9852,1.9872,1.9899,1.9902,1.9917,1.9906,1.99,1.99,1.9898,1.9899,1.9919,1.992,1.992,1.992,0,1.9572,1.9579,1.9606,1.9635,1.9657,1.9681,1.9705,1.9718,1.9738,1.9758,1.9788,1.9807,1.9844,1.9872,1.9901,1.9916,1.9921,1.9923,1.9928,1.9924,1.9915,1.9918,1.9876,1.9922,1.9922,1.9922,1.9922,1.9922,1.9598,1.9618,1.9644,1.9672,1.9691,1.9713,1.9733,1.975,1.9775,1.9806,1.9814,1.9845,1.9869,1.9908,1.9924,1.9947,1.9944,1.9952,1.9954,1.9955,1.9954,1.9912,1.9952,1.9952,1.9952,1.9952,1.9952,0,1.9636,1.9653,1.9679,1.9711,1.9733,1.9735,1.976,1.9778,1.9805,1.9827,1.985,1.9883,1.991,1.9931,1.9958,1.9972,1.9975,1.9979,1.9978,1.9981,1.9956,1.9948,1.9976,1.9976,1.9976,1.9976,1.9976,1.9976,1.9659,1.9693,1.9703,1.9745,1.9761,1.9791,1.9805,1.9823,1.9841,1.9877,1.9899,1.9912,1.9933,1.9962,1.9986,1.9991,2.0,2.0003,2.0009,1.9985,1.9983,1.998,1.9973,2.0005,2.0006,2.0031,2.0031,2.0032]},{"header":{"parameterUnit":"m.s-1","parameterCategory":1,"la1":30.2991,"la2":30.254,"lo1":-89.0895,"lo2":-89.0444,"dy":0.0017,"dx":0.0017,"nx":28,"ny":28,"refTime":"2025-07-17T21:00:00:Z","depth":0,"parameterNumber":3,"parameterNumberName":"V-component_of_WINDS"},"data":[0,0,0,0,0,0,0,0,0,0,0,0,0,0,0,0,0,0,0,0,0,0,0,0,0,0,0,0,0,0,0,0,0,0,0,0,0,0,0,0,0,0,0,0,0,0,0,0,0,0,0,0,0,0,0,0,0,0,2.1651,2.1651,0,2.1721,2.1722,2.1723,2.1722,2.1721,2.172,2.1719,2.1791,2.1793,2.1796,0,0,0,0,0,0,0,0,0,0,0,0,0,2.1513,2.1516,2.1651,2.1651,2.1652,2.1721,2.1722,2.1723,2.1722,2.1721,2.172,2.1719,2.179,2.1793,2.1796,0,0,0,0,0,0,0,0,0,0,0,0,0,2.1577,2.1517,2.165,2.166,2.1662,2.1721,2.1722,2.1723,2.1722,2.1721,2.172,2.1718,2.1789,2.1793,2.1797,2.1851,0,0,2.181,2.1811,0,0,0,0,0,0,0,0,2.1574,2.1582,2.1658,2.166,2.1661,2.1711,2.17,2.1766,2.1723,2.1699,2.1719,2.1718,2.1765,2.1771,2.1788,2.1854,2.1857,2.181,2.1813,2.1814,2.1816,0,0,0,0,0,0,0,2.1569,2.1579,2.1678,2.1659,2.1661,2.1661,2.1668,2.1713,2.1739,2.1701,2.1701,2.171,2.1766,2.1784,2.1789,2.1858,2.181,2.1814,2.1816,2.1818,2.1972,2.1973,0,0,0,0,0,0,2.1563,2.1576,2.1676,2.1681,2.1613,2.1664,2.1673,2.1697,2.1739,2.1744,2.1711,2.1709,2.1777,2.1785,2.1792,2.1857,2.1814,2.1818,2.1821,2.197,2.1972,2.1974,0,0,0,0,0,0,2.156,2.1572,2.1673,2.1628,2.1641,2.1668,2.1695,2.1699,2.1717,2.1746,2.1751,2.1724,2.1776,2.1786,2.1836,2.186,2.182,2.1824,2.1968,2.1971,2.1973,2.1989,0,0,0,0,0,0,2.1556,2.1571,2.1592,2.1629,2.1644,2.1717,2.1697,2.1701,2.1724,2.1723,2.176,2.1765,2.1776,2.183,2.184,2.1865,2.1827,2.1966,2.1969,2.1972,2.1986,2.1992,2.1996,0,0,0,0,0,2.1551,2.1594,2.1593,2.1605,2.1671,2.1718,2.1727,2.1739,2.1726,2.1747,2.1766,2.1763,2.1856,2.1835,2.1847,2.1873,2.1965,2.1968,2.1972,2.1984,2.1991,2.1996,0,0,0,0,0,0,2.1559,2.1599,2.1599,2.1654,2.1683,2.1718,2.1745,2.1746,2.1779,2.1776,2.179,2.1798,2.1848,2.1866,2.1842,2.1927,2.1908,2.1914,2.1914,2.192,2.1925,2.1919,2.1831,0,0,0,0,0,2.1568,2.1603,2.1636,2.1682,2.1696,2.1718,2.1739,2.1747,2.1777,2.1789,2.1811,2.184,2.1876,2.1899,2.1933,2.1989,2.1997,2.2013,2.2017,2.2021,2.2026,2.2056,2.2064,2.1985,2.1985,2.1985,0,0,2.1585,2.1611,2.1633,2.1684,2.1707,2.1743,2.1728,2.1768,2.1794,2.1795,2.1843,2.1861,2.1894,2.1947,2.1971,2.1963,2.2049,2.2026,2.2028,2.2032,2.2061,2.2068,2.2075,2.1988,2.1987,2.1987,0,0,2.1635,2.1659,2.1699,2.1723,2.1758,2.1772,2.1781,2.1817,2.1828,2.1877,2.1878,2.191,2.1971,2.1994,2.2014,2.2072,2.2071,2.2083,2.2108,2.2137,2.2143,2.2149,2.2169,2.2176,2.2088,2.2088,2.2088,0,2.1653,2.1707,2.172,2.1759,2.1782,2.1783,2.1824,2.1846,2.189,2.1905,2.1895,2.1971,2.1994,2.2052,2.2066,2.2083,2.2094,2.2079,2.2142,2.2147,2.2153,2.2172,2.218,2.2089,2.2089,2.2089,2.2089,0,2.1727,2.1765,2.1793,2.1836,2.1861,2.1901,2.1919,2.1943,2.1948,2.1963,2.2013,2.204,2.2079,2.2094,2.2099,2.2152,2.2146,2.2139,2.212,2.2161,2.218,2.2187,2.2091,2.2091,2.209,2.209,0,0,2.1784,2.1833,2.1843,2.1862,2.1901,2.193,2.1969,2.2008,2.2028,2.2059,2.2092,2.2143,2.2136,2.2159,2.2167,2.2192,2.2236,2.2182,2.2183,2.2191,2.2296,2.2301,2.231,2.2235,2.2237,2.2238,2.2293,0,2.1838,2.1909,2.1921,2.1982,2.2017,2.2019,2.2053,2.208,2.2095,2.2127,2.2143,2.2179,2.2168,2.2181,2.2207,2.2225,2.2257,2.2222,2.2266,2.2267,2.2257,2.232,2.2325,2.2376,2.2301,2.2302,2.2303,0,2.1911,2.1943,2.2007,2.204,2.2055,2.2086,2.2122,2.2153,2.2183,2.2192,2.2217,2.2222,2.2262,2.2242,2.2298,2.2273,2.2292,2.2304,2.2306,2.231,2.2287,2.2325,2.2393,2.24,2.2314,2.2314,2.2313,0,2.1945,2.2005,2.2051,2.2067,2.2107,2.2129,2.2146,2.2175,2.2197,2.2229,2.2243,2.2279,2.2299,2.2326,2.234,2.2324,2.2395,2.2376,2.2403,2.2403,2.2418,2.2417,2.2488,2.243,2.243,2.243,2.243,0,2.2004,2.2044,2.2067,2.2096,2.214,2.2153,2.2196,2.2213,2.2239,2.227,2.2274,2.2304,2.232,2.2352,2.2363,2.2408,2.2417,2.2425,2.2427,2.2424,2.2423,2.2437,2.2433,2.2432,2.2432,2.2431,2.2431,0,2.205,2.2068,2.2118,2.2152,2.2161,2.2192,2.222,2.2248,2.2263,2.2302,2.2312,2.2336,2.2373,2.239,2.2436,2.2444,2.2494,2.2494,2.2484,2.2485,2.2511,2.2508,2.2594,2.2605,2.254,2.254,2.2541,0,2.2086,2.2117,2.2153,2.2175,2.2193,2.2227,2.225,2.2264,2.2287,2.2324,2.2347,2.2385,2.2416,2.2475,2.2496,2.2532,2.2532,2.256,2.2538,2.2534,2.2532,2.253,2.2533,2.2564,2.2565,2.2565,2.2565,0,2.2149,2.2155,2.2188,2.2224,2.225,2.2279,2.2307,2.2324,2.2343,2.2369,2.2407,2.2431,2.2479,2.2516,2.2552,2.257,2.2571,2.2572,2.258,2.2578,2.257,2.2574,2.2494,2.257,2.257,2.2569,2.2569,2.2569,2.2191,2.2217,2.2247,2.2283,2.2306,2.2332,2.2359,2.2377,2.2409,2.2449,2.2455,2.2496,2.2525,2.2574,2.2593,2.2625,2.2619,2.2631,2.2633,2.2636,2.2637,2.2565,2.2632,2.2632,2.2632,2.2632,2.2632,0,2.2252,2.2271,2.2304,2.2343,2.2371,2.237,2.2401,2.2424,2.246,2.2487,2.2518,2.2562,2.2598,2.2621,2.2657,2.2678,2.268,2.2687,2.2686,2.269,2.2642,2.2631,2.2686,2.2686,2.2686,2.2686,2.2686,2.2686,2.2288,2.2333,2.2343,2.2399,2.2418,2.2458,2.2476,2.25,2.2521,2.257,2.26,2.2615,2.2641,2.2679,2.2712,2.2718,2.2731,2.2739,2.2745,2.2699,2.2693,2.2688,2.2678,2.2742,2.2742,2.279,2.2791,2.2791]}]]